ATLAS 5 CENTAUR DEB, 49360

Orbit data source: Space-Track

ATLAS 5 CENTAUR DEB, 49360 is space debris in HEO originally from a launch on Wed, 17 Oct 2018 UTC launched from the Air Force Eastern Test Range (AFETR). Debris objects in space refer to the collection of defunct objects orbiting the Earth. Examples of debris include non-operational satellites, rocket bodies, and fragments generated from explosions, collisions, or faulty payload assembly.

Loading next visibility...
Identifier
49360, 2018-079FM
Orbit
HEO
Country
Flag of USUS
Related business
Flag of USUnited Launch Alliance/Lockheed Martin (US)
Manufacturer
ULA Decatur
Mission
Spacecraft
Bus & Motor
Unknown
Mass
Unknown
Launch date (UTC)
2018-10-17 (8 years ago)
Launch vehicle
Unknown
Launch site
Air Force Eastern Test Range (AFETR)
Object type
Payload
Rocket body
Debris
Shape & HBR
Unknown shape, 1.1 m
Radar Cross Section
Medium (>0.1 m² and <1 m²)

Expand to show TLE details & history
Last TLE update: 2 weeks ago

TLE from 2 weeks ago
0 ATLAS 5 CENTAUR DEB
1 49360U 18079FM  26162.92816777 -.00000050  00000-0  00000-0 0  9997
2 49360  12.9357  43.2947 4361297 310.1790  19.1031  1.88109218 32876
Epoch: 2026-06-11T22:16Z
TLE epoch observation values (Epoch: 2026-06-11T22:16:33.695Z)
Latitude
0.00005°
Longitude
168.83155°
Altitude
11,161.995 km
Speed
5.574 km/s
True Right ascension
02h 52m 56s
True Declination
0° 00' 00"
Sunlit
Object was in daylight at epoch
Visualization orbit readout
Latitude
Unknown
Longitude
Unknown
Altitude
Unknown
Speed
Unknown
Apparent Right ascension
Unknown
Apparent Declination
Unknown
Sunlit
N/A
Visualization observer readout
Local Sidereal Time
21:35:26
Azimuth
Unknown
Elevation
Unknown
Doppler factor
Unknown
Orbital elements
Apogee altitude
33,434.472 km
Perigee altitude
9,253.563 km
Semi-major axis
27,722.155 km
Eccentricity
0.43613
Inclination
12.9357°
RAAN
43.2947°
Arg. of periapsis
310.179°
True anomaly
49.95839°
Mean anomaly
19.1031°
Eccentric anomaly
32.54642°
Mean motion
0.47022 °/min
Orbital period
765.6 mins
BSTAR
0
Loading maneuver chart data...
Computing Atmospheric mass density...

Documentation

Showing up to 5 results
|